Time,TemperatureF,DewpointF,PressureIn,WindDirection,WindDirectionDegrees,WindSpeedMPH,WindSpeedGustMPH,Humidity,HourlyPrecipIn,Conditions,Clouds,dailyrainin,SolarRadiationWatts/m^2,SoftwareType,DateUTC
2013-04-12 00:00:00,48.3,40.4,30.00,NNE,26,0.0,0.0,74,0.00,,---,0.00,0.00,VWS V14.01,2013-04-12 04:00:00,
2013-04-12 00:05:00,48.3,40.4,30.00,ESE,103,0.0,0.0,74,0.00,,---,0.00,0.00,VWS V14.01,2013-04-12 04:05:00,
2013-04-12 00:10:00,48.2,40.3,30.00,NE,42,0.0,0.0,74,0.00,,---,0.00,0.00,VWS V14.01,2013-04-12 04:10:00,
2013-04-12 00:15:00,48.3,40.4,29.99,ENE,69,0.0,0.0,74,0.00,,---,0.00,0.00,VWS V14.01,2013-04-12 04:15:00,
2013-04-12 00:20:00,48.2,40.0,29.99,NNE,33,0.0,0.0,73,0.00,,---,0.00,0.00,VWS V14.01,2013-04-12 04:20:00,
2013-04-12 00:25:00,48.2,40.0,29.99,East,96,0.0,0.0,73,0.00,,---,0.00,0.00,VWS V14.01,2013-04-12 04:25:00,
2013-04-12 00:30:00,48.0,39.8,29.99,East,97,0.0,0.0,73,0.00,,---,0.00,0.00,VWS V14.01,2013-04-12 04:30:00,
2013-04-12 00:35:00,48.0,39.8,29.99,ESE,102,0.0,0.0,73,0.00,,---,0.00,0.00,VWS V14.01,2013-04-12 04:35:00,
2013-04-12 00:40:00,48.0,39.8,29.99,ESE,121,0.0,0.0,73,0.00,,---,0.00,0.00,VWS V14.01,2013-04-12 04:40:00,
2013-04-12 00:45:00,48.0,39.4,29.98,East,86,0.0,0.0,72,0.00,,---,0.00,0.00,VWS V14.01,2013-04-12 04:45:00,
2013-04-12 00:50:00,47.9,39.3,29.98,ESE,123,0.0,0.0,72,0.00,,---,0.00,0.00,VWS V14.01,2013-04-12 04:50:00,
2013-04-12 00:55:00,47.9,39.0,29.98,ENE,60,0.0,0.0,71,0.00,,---,0.00,0.00,VWS V14.01,2013-04-12 04:55:00,
2013-04-12 01:00:00,48.0,39.4,29.98,ESE,117,0.0,0.0,72,0.00,,---,0.00,0.00,VWS V14.01,2013-04-12 05:00:00,
2013-04-12 01:05:00,48.0,39.4,29.98,ENE,59,0.0,0.0,72,0.00,,---,0.00,0.00,VWS V14.01,2013-04-12 05:05:00,
2013-04-12 01:10:00,48.1,39.2,29.99,NE,47,0.0,0.0,71,0.00,,---,0.00,0.00,VWS V14.01,2013-04-12 05:10:00,
2013-04-12 01:15:00,48.1,38.8,29.99,ESE,122,0.0,0.0,70,0.00,,---,0.00,0.00,VWS V14.01,2013-04-12 05:15:00,
2013-04-12 01:20:00,48.1,38.8,29.99,East,93,0.0,0.0,70,0.00,,---,0.00,0.00,VWS V14.01,2013-04-12 05:20:00,
2013-04-12 01:25:00,48.0,38.3,29.99,East,80,0.0,0.0,69,0.00,,---,0.00,0.00,VWS V14.01,2013-04-12 05:25:00,
2013-04-12 01:30:00,48.1,38.4,29.99,East,83,0.0,0.0,69,0.00,,---,0.00,0.00,VWS V14.01,2013-04-12 05:30:00,
2013-04-12 01:35:00,48.1,38.4,29.98,ESE,110,0.0,0.0,69,0.00,,---,0.00,0.00,VWS V14.01,2013-04-12 05:35:00,
2013-04-12 01:40:00,48.0,38.0,29.98,ENE,74,0.0,0.0,68,0.00,,---,0.00,0.00,VWS V14.01,2013-04-12 05:40:00,
2013-04-12 01:45:00,48.0,38.0,29.98,East,101,0.0,0.0,68,0.00,,---,0.00,0.00,VWS V14.01,2013-04-12 05:45:00,
2013-04-12 01:50:00,48.0,38.0,29.98,ESE,114,0.0,0.0,68,0.00,,---,0.00,0.00,VWS V14.01,2013-04-12 05:50:00,
2013-04-12 01:55:00,48.0,38.3,29.99,East,79,0.0,0.0,69,0.00,,---,0.00,0.00,VWS V14.01,2013-04-12 05:55:00,
2013-04-12 02:00:00,48.0,38.3,29.98,NE,53,0.0,0.0,69,0.00,,---,0.00,0.00,VWS V14.01,2013-04-12 06:00:00,
2013-04-12 02:05:00,47.9,37.9,29.98,ENE,69,0.0,0.0,68,0.00,,---,0.00,0.00,VWS V14.01,2013-04-12 06:05:00,
2013-04-12 02:10:00,47.9,37.9,29.98,ESE,105,0.0,0.0,68,0.00,,---,0.00,0.00,VWS V14.01,2013-04-12 06:10:00,
2013-04-12 02:15:00,47.9,37.9,29.99,ENE,71,0.0,0.0,68,0.00,,---,0.00,0.00,VWS V14.01,2013-04-12 06:15:00,
2013-04-12 02:20:00,47.8,38.1,29.98,East,90,0.0,0.0,69,0.00,,---,0.00,0.00,VWS V14.01,2013-04-12 06:20:00,
2013-04-12 02:25:00,47.9,38.2,29.98,East,86,0.0,0.0,69,0.00,,---,0.00,0.00,VWS V14.01,2013-04-12 06:25:00,
2013-04-12 02:30:00,47.7,38.4,29.97,ESE,107,0.0,0.0,70,0.00,,---,0.00,0.00,VWS V14.01,2013-04-12 06:30:00,
2013-04-12 02:35:00,47.7,38.8,29.97,ENE,65,0.0,0.0,71,0.00,,---,0.00,0.00,VWS V14.01,2013-04-12 06:35:00,
2013-04-12 02:40:00,47.5,39.3,29.97,ENE,74,0.0,0.0,73,0.00,,---,0.00,0.00,VWS V14.01,2013-04-12 06:40:00,
2013-04-12 02:45:00,47.3,39.1,29.97,ESE,103,0.0,0.0,73,0.00,,---,0.00,0.00,VWS V14.01,2013-04-12 06:45:00,
2013-04-12 02:50:00,47.3,39.1,29.97,ENE,66,0.0,0.0,73,0.00,,---,0.00,0.00,VWS V14.01,2013-04-12 06:50:00,
2013-04-12 02:55:00,47.2,39.3,29.97,East,85,0.0,0.0,74,0.00,,---,0.00,0.00,VWS V14.01,2013-04-12 06:55:00,
2013-04-12 03:00:00,47.2,39.3,29.97,ESE,120,0.0,0.0,74,0.00,,---,0.00,0.00,VWS V14.01,2013-04-12 07:00:00,
2013-04-12 03:05:00,46.9,39.7,29.97,ESE,104,0.0,0.0,76,0.00,,---,0.00,0.00,VWS V14.01,2013-04-12 07:05:00,
2013-04-12 03:10:00,46.3,40.2,29.97,East,98,0.0,0.0,79,0.00,,---,0.00,0.00,VWS V14.01,2013-04-12 07:10:00,
2013-04-12 03:15:00,45.9,40.1,29.97,ESE,107,0.0,0.0,80,0.00,,---,0.00,0.00,VWS V14.01,2013-04-12 07:15:00,
2013-04-12 03:20:00,45.5,40.3,29.97,East,86,0.0,0.0,82,0.00,,---,0.00,0.00,VWS V14.01,2013-04-12 07:20:00,
2013-04-12 03:25:00,45.1,40.6,29.97,ESE,103,0.0,0.0,84,0.00,,---,0.00,0.00,VWS V14.01,2013-04-12 07:25:00,
2013-04-12 03:30:00,45.0,40.8,29.97,East,88,0.0,0.0,85,0.00,,---,0.00,0.00,VWS V14.01,2013-04-12 07:30:00,
2013-04-12 03:35:00,44.8,40.9,29.98,East,82,0.0,0.0,86,0.00,,---,0.00,0.00,VWS V14.01,2013-04-12 07:35:00,
2013-04-12 03:40:00,44.6,41.3,29.98,East,92,0.0,0.0,88,0.00,,---,0.00,0.00,VWS V14.01,2013-04-12 07:40:00,
2013-04-12 03:45:00,44.5,41.5,29.98,North,11,0.0,0.0,89,0.00,,---,0.00,0.00,VWS V14.01,2013-04-12 07:45:00,
2013-04-12 03:50:00,44.3,41.6,29.98,East,86,0.0,0.0,90,0.00,,---,0.00,0.00,VWS V14.01,2013-04-12 07:50:00,
2013-04-12 03:55:00,44.2,41.7,29.98,East,101,0.0,0.0,91,0.00,,---,0.00,0.00,VWS V14.01,2013-04-12 07:55:00,
2013-04-12 04:00:00,44.1,41.9,29.97,East,95,0.0,0.0,92,0.00,,---,0.00,0.00,VWS V14.01,2013-04-12 08:00:00,
2013-04-12 04:05:00,44.0,41.8,29.97,East,92,0.0,0.0,92,0.00,,---,0.00,0.00,VWS V14.01,2013-04-12 08:05:00,
2013-04-12 04:10:00,44.0,41.8,29.97,East,97,0.0,0.0,92,0.00,,---,0.00,0.00,VWS V14.01,2013-04-12 08:10:00,
2013-04-12 04:15:00,43.9,41.7,29.96,NNE,26,0.0,0.0,92,0.00,,---,0.00,0.00,VWS V14.01,2013-04-12 08:15:00,
2013-04-12 04:20:00,43.9,41.7,29.95,East,80,0.0,0.0,92,0.00,,---,0.00,0.00,VWS V14.01,2013-04-12 08:20:00,
2013-04-12 04:25:00,43.8,41.9,29.96,East,89,0.0,0.0,93,0.00,,---,0.00,0.00,VWS V14.01,2013-04-12 08:25:00,
2013-04-12 04:30:00,43.9,42.0,29.95,East,80,0.0,0.0,93,0.00,,---,0.00,0.00,VWS V14.01,2013-04-12 08:30:00,
2013-04-12 04:35:00,43.8,41.9,29.96,ENE,74,0.0,0.0,93,0.00,,---,0.00,0.00,VWS V14.01,2013-04-12 08:35:00,
2013-04-12 04:40:00,43.7,41.8,29.96,East,81,0.0,0.0,93,0.00,,---,0.00,0.00,VWS V14.01,2013-04-12 08:40:00,
2013-04-12 04:45:00,43.7,41.8,29.95,ENE,71,0.0,0.0,93,0.00,,---,0.00,0.00,VWS V14.01,2013-04-12 08:45:00,
2013-04-12 04:50:00,43.7,41.8,29.96,ENE,63,0.0,0.0,93,0.00,,---,0.00,0.00,VWS V14.01,2013-04-12 08:50:00,
2013-04-12 04:55:00,43.6,41.7,29.96,ENE,62,0.0,0.0,93,0.00,,---,0.00,0.00,VWS V14.01,2013-04-12 08:55:00,
2013-04-12 05:00:00,43.6,41.7,29.95,ESE,121,0.0,0.0,93,0.00,,---,0.00,0.00,VWS V14.01,2013-04-12 09:00:00,
2013-04-12 05:05:00,43.6,41.7,29.95,ESE,103,0.0,0.0,93,0.00,,---,0.00,0.00,VWS V14.01,2013-04-12 09:05:00,
2013-04-12 05:10:00,43.6,41.7,29.95,ENE,57,0.0,0.0,93,0.00,,---,0.00,0.00,VWS V14.01,2013-04-12 09:10:00,
2013-04-12 05:15:00,43.6,41.7,29.94,ENE,60,0.0,0.0,93,0.00,,---,0.00,0.00,VWS V14.01,2013-04-12 09:15:00,
2013-04-12 05:20:00,43.6,41.7,29.94,ENE,61,0.0,0.0,93,0.00,,---,0.00,0.00,VWS V14.01,2013-04-12 09:20:00,
2013-04-12 05:25:00,43.5,41.6,29.94,East,84,0.0,0.0,93,0.00,,---,0.00,0.00,VWS V14.01,2013-04-12 09:25:00,
2013-04-12 05:30:00,43.4,41.5,29.92,ESE,107,0.0,0.0,93,0.00,,---,0.00,0.00,VWS V14.01,2013-04-12 09:30:00,
2013-04-12 05:35:00,43.3,41.4,29.92,SE,126,0.0,0.0,93,0.00,,---,0.00,0.00,VWS V14.01,2013-04-12 09:35:00,
2013-04-12 05:40:00,43.2,41.3,29.93,East,81,0.0,0.0,93,0.00,,---,0.00,0.00,VWS V14.01,2013-04-12 09:40:00,
2013-04-12 05:45:00,43.1,40.9,29.93,ENE,71,0.0,0.0,92,0.00,,---,0.00,0.00,VWS V14.01,2013-04-12 09:45:00,
2013-04-12 05:50:00,43.0,40.8,29.93,ENE,70,0.0,0.0,92,0.00,,---,0.00,0.00,VWS V14.01,2013-04-12 09:50:00,
2013-04-12 05:55:00,42.9,40.5,29.93,East,92,0.0,0.0,91,0.00,,---,0.00,0.00,VWS V14.01,2013-04-12 09:55:00,
2013-04-12 06:00:00,42.8,40.4,29.93,SE,138,0.0,0.0,91,0.00,,---,0.00,0.00,VWS V14.01,2013-04-12 10:00:00,
2013-04-12 06:05:00,42.8,40.4,29.92,ESE,110,0.0,0.0,91,0.00,,---,0.00,0.00,VWS V14.01,2013-04-12 10:05:00,
2013-04-12 06:10:00,42.7,40.3,29.92,NE,51,0.0,0.0,91,0.00,,---,0.00,0.00,VWS V14.01,2013-04-12 10:10:00,
2013-04-12 06:15:00,42.6,40.2,29.92,NE,51,0.0,0.0,91,0.00,,---,0.00,0.00,VWS V14.01,2013-04-12 10:15:00,
2013-04-12 06:20:00,42.5,40.1,29.92,East,98,0.0,0.0,91,0.00,,---,0.00,0.00,VWS V14.01,2013-04-12 10:20:00,
2013-04-12 06:25:00,42.4,40.0,29.92,ESE,117,0.0,0.0,91,0.00,,---,0.00,0.00,VWS V14.01,2013-04-12 10:25:00,
2013-04-12 06:30:00,42.2,39.8,29.92,East,79,0.0,0.0,91,0.00,,---,0.00,0.00,VWS V14.01,2013-04-12 10:30:00,
2013-04-12 06:35:00,42.2,39.8,29.92,ENE,76,0.0,0.0,91,0.00,,---,0.00,0.00,VWS V14.01,2013-04-12 10:35:00,
2013-04-12 06:40:00,42.2,40.0,29.92,ENE,76,0.0,0.0,92,0.00,,---,0.00,0.00,VWS V14.01,2013-04-12 10:40:00,
2013-04-12 06:45:00,42.1,40.0,29.92,East,83,0.0,0.0,92,0.00,,---,0.00,0.00,VWS V14.01,2013-04-12 10:45:00,
2013-04-12 06:50:00,42.1,40.0,29.91,ENE,65,0.0,0.0,92,0.00,,---,0.00,0.00,VWS V14.01,2013-04-12 10:50:00,
2013-04-12 06:55:00,41.9,40.0,29.91,East,86,0.0,0.0,93,0.00,,---,0.00,0.00,VWS V14.01,2013-04-12 10:55:00,
2013-04-12 07:00:00,41.9,40.0,29.90,North,11,0.0,0.0,93,0.00,,---,0.00,5.00,VWS V14.01,2013-04-12 11:00:00,
2013-04-12 07:05:00,41.8,39.9,29.90,ESE,103,0.0,0.0,93,0.00,,---,0.00,5.00,VWS V14.01,2013-04-12 11:05:00,
2013-04-12 07:10:00,41.9,40.0,29.90,ENE,78,0.0,0.0,93,0.00,,---,0.00,5.00,VWS V14.01,2013-04-12 11:10:00,
2013-04-12 07:15:00,41.9,40.0,29.90,NNE,19,0.0,0.0,93,0.00,,---,0.01,0.00,VWS V14.01,2013-04-12 11:15:00,
2013-04-12 07:20:00,41.9,40.0,29.90,ENE,66,0.0,0.0,93,0.01,,---,0.01,0.00,VWS V14.01,2013-04-12 11:20:00,
2013-04-12 07:25:00,41.9,40.0,29.90,East,99,0.0,0.0,93,0.01,,---,0.01,0.00,VWS V14.01,2013-04-12 11:25:00,
2013-04-12 07:30:00,41.9,40.0,29.90,East,92,0.0,0.0,93,0.01,,---,0.01,0.00,VWS V14.01,2013-04-12 11:30:00,
2013-04-12 07:35:00,41.9,40.0,29.90,East,90,0.0,0.0,93,0.01,,---,0.01,5.00,VWS V14.01,2013-04-12 11:35:00,
2013-04-12 07:40:00,41.9,40.0,29.89,ESE,103,0.0,0.0,93,0.01,,---,0.01,9.00,VWS V14.01,2013-04-12 11:40:00,
2013-04-12 07:45:00,42.0,40.1,29.89,ESE,111,0.0,0.0,93,0.01,,---,0.01,5.00,VWS V14.01,2013-04-12 11:45:00,
2013-04-12 07:50:00,41.9,40.0,29.89,NE,41,0.0,0.0,93,0.01,,---,0.01,5.00,VWS V14.01,2013-04-12 11:50:00,
2013-04-12 07:55:00,41.8,39.9,29.88,East,90,0.0,0.0,93,0.01,,---,0.01,5.00,VWS V14.01,2013-04-12 11:55:00,
2013-04-12 08:00:00,41.8,39.9,29.88,ESE,109,0.0,0.0,93,0.01,,---,0.01,5.00,VWS V14.01,2013-04-12 12:00:00,
2013-04-12 08:05:00,41.6,39.5,29.89,East,101,0.0,0.0,92,0.02,,---,0.02,5.00,VWS V14.01,2013-04-12 12:05:00,
2013-04-12 08:10:00,41.4,39.2,29.89,ESE,103,0.0,0.0,92,0.02,,---,0.02,7.00,VWS V14.01,2013-04-12 12:10:00,
2013-04-12 08:15:00,41.3,39.2,29.89,East,82,0.0,0.0,92,0.03,,---,0.03,12.00,VWS V14.01,2013-04-12 12:15:00,
2013-04-12 08:20:00,41.1,39.2,29.89,ENE,74,0.0,0.0,93,0.03,,---,0.04,12.00,VWS V14.01,2013-04-12 12:20:00,
2013-04-12 08:25:00,41.2,39.3,29.89,ESE,106,0.0,0.0,93,0.03,,---,0.04,12.00,VWS V14.01,2013-04-12 12:25:00,
2013-04-12 08:30:00,41.1,39.0,29.89,East,101,0.0,0.0,92,0.03,,---,0.04,14.00,VWS V14.01,2013-04-12 12:30:00,
2013-04-12 08:35:00,41.1,39.0,29.89,East,94,0.0,0.0,92,0.03,,---,0.04,9.00,VWS V14.01,2013-04-12 12:35:00,
2013-04-12 08:40:00,41.0,38.9,29.89,ENE,62,0.0,0.0,92,0.04,,---,0.05,9.00,VWS V14.01,2013-04-12 12:40:00,
2013-04-12 08:45:00,41.0,39.1,29.89,ENE,72,0.0,0.0,93,0.04,,---,0.05,16.00,VWS V14.01,2013-04-12 12:45:00,
2013-04-12 08:50:00,40.9,39.0,29.88,NNE,28,0.0,0.0,93,0.09,,---,0.10,28.00,VWS V14.01,2013-04-12 12:50:00,
2013-04-12 08:55:00,40.8,38.9,29.87,SE,139,0.0,0.0,93,0.13,,---,0.14,44.00,VWS V14.01,2013-04-12 12:55:00,
2013-04-12 09:00:00,40.9,39.0,29.87,North,355,0.0,0.0,93,0.14,,---,0.15,26.00,VWS V14.01,2013-04-12 13:00:00,
2013-04-12 09:05:00,41.0,39.1,29.87,ENE,63,0.0,0.0,93,0.15,,---,0.16,19.00,VWS V14.01,2013-04-12 13:05:00,
2013-04-12 09:10:00,41.0,39.1,29.88,East,90,0.0,0.0,93,0.16,,---,0.18,14.00,VWS V14.01,2013-04-12 13:10:00,
2013-04-12 09:15:00,41.1,39.2,29.88,East,87,0.0,0.0,93,0.17,,---,0.19,30.00,VWS V14.01,2013-04-12 13:15:00,
2013-04-12 09:20:00,41.3,39.4,29.87,East,90,0.0,0.0,93,0.15,,---,0.19,33.00,VWS V14.01,2013-04-12 13:20:00,
2013-04-12 09:25:00,41.4,39.2,29.87,ENE,68,0.0,0.0,92,0.15,,---,0.19,19.00,VWS V14.01,2013-04-12 13:25:00,
2013-04-12 09:30:00,41.4,39.2,29.88,East,92,0.0,0.0,92,0.15,,---,0.19,23.00,VWS V14.01,2013-04-12 13:30:00,
2013-04-12 09:35:00,41.4,39.5,29.88,ENE,77,0.0,0.0,93,0.15,,---,0.19,28.00,VWS V14.01,2013-04-12 13:35:00,
2013-04-12 09:40:00,41.5,39.6,29.89,NNE,22,0.0,0.0,93,0.14,,---,0.19,16.00,VWS V14.01,2013-04-12 13:40:00,
2013-04-12 09:45:00,41.5,39.3,29.88,ESE,109,0.0,0.0,92,0.16,,---,0.21,33.00,VWS V14.01,2013-04-12 13:45:00,
2013-04-12 09:50:00,41.5,39.3,29.88,East,96,0.0,0.0,92,0.08,,---,0.23,47.00,VWS V14.01,2013-04-12 13:50:00,
2013-04-12 09:55:00,41.4,39.2,29.88,ENE,70,0.0,0.0,92,0.10,,---,0.25,35.00,VWS V14.01,2013-04-12 13:55:00,
2013-04-12 10:00:00,41.4,39.2,29.87,ENE,63,0.0,0.0,92,0.11,,---,0.26,39.00,VWS V14.01,2013-04-12 14:00:00,
2013-04-12 10:05:00,41.5,39.3,29.87,ENE,74,0.0,0.0,92,0.11,,---,0.26,32.00,VWS V14.01,2013-04-12 14:05:00,
2013-04-12 10:10:00,41.5,39.3,29.87,East,79,0.0,0.0,92,0.10,,---,0.28,74.00,VWS V14.01,2013-04-12 14:10:00,
2013-04-12 10:15:00,41.4,39.0,29.86,ENE,61,0.0,0.0,91,0.11,,---,0.29,46.00,VWS V14.01,2013-04-12 14:15:00,
2013-04-12 10:20:00,41.3,39.2,29.87,ENE,63,0.0,0.0,92,0.14,,---,0.33,70.00,VWS V14.01,2013-04-12 14:20:00,
2013-04-12 10:25:00,41.3,39.4,29.86,ENE,69,0.0,0.0,93,0.19,,---,0.38,70.00,VWS V14.01,2013-04-12 14:25:00,
2013-04-12 10:30:00,41.1,39.2,29.85,SE,125,0.0,0.0,93,0.20,,---,0.39,102.00,VWS V14.01,2013-04-12 14:30:00,
2013-04-12 10:35:00,41.3,39.4,29.84,North,5,0.0,0.0,93,0.21,,---,0.40,47.00,VWS V14.01,2013-04-12 14:35:00,
2013-04-12 10:40:00,41.3,39.2,29.86,East,83,0.0,0.0,92,0.22,,---,0.41,39.00,VWS V14.01,2013-04-12 14:40:00,
2013-04-12 10:45:00,41.4,39.2,29.87,NE,44,0.0,0.0,92,0.26,,---,0.45,44.00,VWS V14.01,2013-04-12 14:45:00,
2013-04-12 10:50:00,41.3,39.2,29.88,ESE,110,0.0,0.0,92,0.28,,---,0.47,42.00,VWS V14.01,2013-04-12 14:50:00,
2013-04-12 10:55:00,41.4,39.5,29.88,East,96,0.0,0.0,93,0.29,,---,0.48,51.00,VWS V14.01,2013-04-12 14:55:00,
2013-04-12 11:00:00,41.4,39.2,29.89,East,94,0.0,0.0,92,0.23,,---,0.49,77.00,VWS V14.01,2013-04-12 15:00:00,
2013-04-12 11:05:00,41.6,39.5,29.88,East,93,0.0,0.0,92,0.24,,---,0.50,137.00,VWS V14.01,2013-04-12 15:05:00,
2013-04-12 11:10:00,41.6,39.5,29.88,NE,53,0.0,0.0,92,0.23,,---,0.50,139.00,VWS V14.01,2013-04-12 15:10:00,
2013-04-12 11:15:00,41.8,39.4,29.89,SE,127,0.0,0.0,91,0.23,,---,0.50,86.00,VWS V14.01,2013-04-12 15:15:00,
2013-04-12 11:20:00,41.8,39.4,29.88,East,84,0.0,0.0,91,0.19,,---,0.51,74.00,VWS V14.01,2013-04-12 15:20:00,
2013-04-12 11:25:00,41.7,39.5,29.87,ESE,103,0.0,0.0,92,0.20,,---,0.52,113.00,VWS V14.01,2013-04-12 15:25:00,
2013-04-12 11:30:00,41.7,39.5,29.86,East,80,0.0,0.0,92,0.14,,---,0.53,142.00,VWS V14.01,2013-04-12 15:30:00,
2013-04-12 11:35:00,41.7,39.5,29.85,East,85,0.0,0.0,92,0.15,,---,0.54,86.00,VWS V14.01,2013-04-12 15:35:00,
2013-04-12 11:40:00,41.9,39.8,29.85,ENE,60,0.0,0.0,92,0.13,,---,0.54,77.00,VWS V14.01,2013-04-12 15:40:00,
2013-04-12 11:45:00,41.8,39.7,29.85,East,93,0.0,0.0,92,0.14,,---,0.55,67.00,VWS V14.01,2013-04-12 15:45:00,
2013-04-12 11:50:00,41.8,39.7,29.84,ENE,58,0.0,0.0,92,0.07,,---,0.56,70.00,VWS V14.01,2013-04-12 15:50:00,
2013-04-12 11:55:00,41.8,39.7,29.84,NNE,13,0.0,0.0,92,0.07,,---,0.56,70.00,VWS V14.01,2013-04-12 15:55:00,
2013-04-12 12:00:00,42.0,40.1,29.83,East,80,0.0,0.0,93,0.08,,---,0.57,72.00,VWS V14.01,2013-04-12 16:00:00,
2013-04-12 12:05:00,41.9,39.8,29.82,NNE,26,0.0,0.0,92,0.08,,---,0.57,100.00,VWS V14.01,2013-04-12 16:05:00,
2013-04-12 12:10:00,41.9,39.8,29.82,NE,39,0.0,0.0,92,0.07,,---,0.57,113.00,VWS V14.01,2013-04-12 16:10:00,
2013-04-12 12:15:00,42.1,40.0,29.81,ESE,121,0.0,0.0,92,0.08,,---,0.58,146.00,VWS V14.01,2013-04-12 16:15:00,
2013-04-12 12:20:00,42.3,40.4,29.81,NNE,30,0.0,0.0,93,0.07,,---,0.58,132.00,VWS V14.01,2013-04-12 16:20:00,
2013-04-12 12:25:00,42.4,40.2,29.81,NE,54,0.0,0.0,92,0.07,,---,0.58,142.00,VWS V14.01,2013-04-12 16:25:00,
2013-04-12 12:30:00,42.4,40.0,29.81,ENE,59,0.0,0.0,91,0.05,,---,0.58,113.00,VWS V14.01,2013-04-12 16:30:00,
2013-04-12 12:35:00,42.5,40.1,29.81,East,86,0.0,0.0,91,0.05,,---,0.58,76.00,VWS V14.01,2013-04-12 16:35:00,
2013-04-12 12:40:00,42.5,40.3,29.81,NE,40,0.0,0.0,92,0.04,,---,0.58,69.00,VWS V14.01,2013-04-12 16:40:00,
2013-04-12 12:45:00,42.6,40.2,29.81,NE,48,0.0,0.0,91,0.04,,---,0.58,65.00,VWS V14.01,2013-04-12 16:45:00,
2013-04-12 12:50:00,42.6,40.4,29.80,SE,130,0.0,0.0,92,0.02,,---,0.58,58.00,VWS V14.01,2013-04-12 16:50:00,
2013-04-12 12:55:00,42.7,40.5,29.80,NE,55,0.0,0.0,92,0.02,,---,0.58,51.00,VWS V14.01,2013-04-12 16:55:00,
2013-04-12 13:00:00,42.7,40.5,29.79,NE,34,0.0,0.0,92,0.01,,---,0.58,63.00,VWS V14.01,2013-04-12 17:00:00,
2013-04-12 13:05:00,42.8,40.6,29.79,NE,51,0.0,0.0,92,0.01,,---,0.58,69.00,VWS V14.01,2013-04-12 17:05:00,
2013-04-12 13:10:00,42.7,40.3,29.79,ENE,61,0.0,0.0,91,0.01,,---,0.58,58.00,VWS V14.01,2013-04-12 17:10:00,
2013-04-12 13:15:00,42.6,40.4,29.79,NE,44,0.0,0.0,92,0.01,,---,0.58,67.00,VWS V14.01,2013-04-12 17:15:00,
2013-04-12 13:20:00,42.4,40.2,29.79,ENE,73,0.0,0.0,92,0.01,,---,0.59,70.00,VWS V14.01,2013-04-12 17:20:00,
2013-04-12 13:25:00,42.4,40.2,29.79,NE,40,0.0,0.0,92,0.01,,---,0.59,54.00,VWS V14.01,2013-04-12 17:25:00,
2013-04-12 13:30:00,42.4,40.2,29.79,NNE,32,0.0,0.0,92,0.01,,---,0.59,74.00,VWS V14.01,2013-04-12 17:30:00,
2013-04-12 13:35:00,42.5,40.3,29.78,NE,41,0.0,0.0,92,0.02,,---,0.60,58.00,VWS V14.01,2013-04-12 17:35:00,
2013-04-12 13:40:00,42.5,40.3,29.79,North,360,0.0,0.0,92,0.02,,---,0.60,77.00,VWS V14.01,2013-04-12 17:40:00,
2013-04-12 13:45:00,42.7,40.5,29.78,ENE,57,0.0,0.0,92,0.02,,---,0.60,67.00,VWS V14.01,2013-04-12 17:45:00,
2013-04-12 13:50:00,42.6,40.4,29.78,NE,51,0.0,0.0,92,0.02,,---,0.60,88.00,VWS V14.01,2013-04-12 17:50:00,
2013-04-12 13:55:00,42.6,40.7,29.78,ENE,62,0.0,0.0,93,0.02,,---,0.60,98.00,VWS V14.01,2013-04-12 17:55:00,
2013-04-12 14:00:00,42.7,40.5,29.77,ENE,59,0.0,0.0,92,0.02,,---,0.60,100.00,VWS V14.01,2013-04-12 18:00:00,
2013-04-12 14:05:00,42.4,40.2,29.77,ENE,71,0.0,0.0,92,0.02,,---,0.60,134.00,VWS V14.01,2013-04-12 18:05:00,
2013-04-12 14:10:00,42.5,40.3,29.78,NNW,346,0.0,0.0,92,0.02,,---,0.60,128.00,VWS V14.01,2013-04-12 18:10:00,
2013-04-12 14:15:00,42.5,40.3,29.78,ENE,63,0.0,0.0,92,0.02,,---,0.60,95.00,VWS V14.01,2013-04-12 18:15:00,
2013-04-12 14:20:00,42.5,40.3,29.77,ENE,61,0.0,0.0,92,0.01,,---,0.60,84.00,VWS V14.01,2013-04-12 18:20:00,
2013-04-12 14:26:00,42.5,40.3,29.77,North,355,0.0,0.0,92,0.01,,---,0.60,102.00,VWS V14.01,2013-04-12 18:26:00,
2013-04-12 15:26:00,42.4,40.2,29.75,NE,35,0.0,0.0,92,0.00,,---,0.60,113.00,VWS V14.01,2013-04-12 19:26:00,
2013-04-12 15:31:00,42.3,39.9,29.74,East,91,0.0,0.0,91,0.00,,---,0.60,142.00,VWS V14.01,2013-04-12 19:31:00,
2013-04-12 15:37:00,42.3,39.9,29.74,NNE,25,0.0,0.0,91,0.00,,---,0.60,135.00,VWS V14.01,2013-04-12 19:37:00,
2013-04-12 15:42:00,42.3,39.9,29.74,NNE,25,0.0,0.0,91,0.00,,---,0.60,127.00,VWS V14.01,2013-04-12 19:42:00,
2013-04-12 15:47:00,42.3,39.9,29.73,NE,54,0.0,0.0,91,0.00,,---,0.60,153.00,VWS V14.01,2013-04-12 19:47:00,
2013-04-12 15:52:00,42.3,39.6,29.73,NE,46,0.0,0.0,90,0.00,,---,0.60,95.00,VWS V14.01,2013-04-12 19:52:00,
2013-04-12 15:57:00,42.5,40.3,29.73,NE,42,0.0,0.0,92,0.00,,---,0.60,84.00,VWS V14.01,2013-04-12 19:57:00,
2013-04-12 16:02:00,42.6,40.2,29.74,North,11,0.0,0.0,91,0.00,,---,0.60,86.00,VWS V14.01,2013-04-12 20:02:00,
2013-04-12 16:07:00,42.5,39.8,29.73,NE,38,0.0,0.0,90,0.00,,---,0.60,91.00,VWS V14.01,2013-04-12 20:07:00,
2013-04-12 16:12:00,42.4,39.7,29.74,NNE,20,0.0,0.0,90,0.00,,---,0.60,95.00,VWS V14.01,2013-04-12 20:12:00,
2013-04-12 16:17:00,42.5,40.1,29.73,NNE,27,0.0,0.0,91,0.00,,---,0.60,76.00,VWS V14.01,2013-04-12 20:17:00,
2013-04-12 16:22:00,42.4,39.7,29.73,North,9,0.0,0.0,90,0.00,,---,0.60,90.00,VWS V14.01,2013-04-12 20:22:00,
2013-04-12 16:27:00,42.3,39.6,29.73,ENE,64,0.0,0.0,90,0.00,,---,0.60,90.00,VWS V14.01,2013-04-12 20:27:00,
2013-04-12 16:32:00,42.6,40.2,29.73,East,81,0.0,0.0,91,0.00,,---,0.60,90.00,VWS V14.01,2013-04-12 20:32:00,
2013-04-12 16:37:00,42.4,39.7,29.72,NNE,31,0.0,0.0,90,0.00,,---,0.60,76.00,VWS V14.01,2013-04-12 20:37:00,
2013-04-12 16:42:00,42.3,39.6,29.72,NE,47,0.0,0.0,90,0.00,,---,0.60,35.00,VWS V14.01,2013-04-12 20:42:00,
2013-04-12 16:47:00,42.1,39.4,29.73,North,360,0.0,0.0,90,0.00,,---,0.60,47.00,VWS V14.01,2013-04-12 20:47:00,
2013-04-12 16:52:00,42.1,39.7,29.73,NNE,17,0.0,0.0,91,0.00,,---,0.60,46.00,VWS V14.01,2013-04-12 20:52:00,
2013-04-12 16:57:00,42.2,39.8,29.73,NE,56,0.0,0.0,91,0.00,,---,0.60,77.00,VWS V14.01,2013-04-12 20:57:00,
2013-04-12 17:02:00,42.1,39.7,29.73,NE,51,0.0,0.0,91,0.00,,---,0.60,56.00,VWS V14.01,2013-04-12 21:02:00,
2013-04-12 17:07:00,42.0,39.6,29.73,NE,54,0.0,0.0,91,0.00,,---,0.60,58.00,VWS V14.01,2013-04-12 21:07:00,
2013-04-12 17:12:00,41.9,39.5,29.74,ENE,74,0.0,0.0,91,0.00,,---,0.60,32.00,VWS V14.01,2013-04-12 21:12:00,
2013-04-12 17:17:00,41.9,39.5,29.74,NE,41,0.0,0.0,91,0.00,,---,0.60,44.00,VWS V14.01,2013-04-12 21:17:00,
2013-04-12 17:22:00,41.9,39.5,29.74,NE,36,0.0,0.0,91,0.00,,---,0.60,37.00,VWS V14.01,2013-04-12 21:22:00,
2013-04-12 17:27:00,41.9,39.5,29.73,East,84,0.0,0.0,91,0.00,,---,0.60,23.00,VWS V14.01,2013-04-12 21:27:00,
2013-04-12 17:32:00,41.8,39.7,29.73,NE,34,0.0,0.0,92,0.00,,---,0.60,37.00,VWS V14.01,2013-04-12 21:32:00,
2013-04-12 17:37:00,41.8,39.7,29.73,NE,34,0.0,0.0,92,0.00,,---,0.60,46.00,VWS V14.01,2013-04-12 21:37:00,
2013-04-12 17:42:00,41.9,39.8,29.73,North,355,0.0,0.0,92,0.00,,---,0.60,49.00,VWS V14.01,2013-04-12 21:42:00,
2013-04-12 17:47:00,41.9,39.8,29.74,NNE,22,0.0,0.0,92,0.00,,---,0.60,42.00,VWS V14.01,2013-04-12 21:47:00,
2013-04-12 17:52:00,42.0,39.8,29.74,East,85,0.0,0.0,92,0.00,,---,0.60,40.00,VWS V14.01,2013-04-12 21:52:00,
2013-04-12 17:57:00,41.9,39.8,29.73,NE,43,0.0,0.0,92,0.00,,---,0.60,35.00,VWS V14.01,2013-04-12 21:57:00,
2013-04-12 18:02:00,41.9,40.0,29.73,NNE,24,0.0,0.0,93,0.00,,---,0.60,35.00,VWS V14.01,2013-04-12 22:02:00,
2013-04-12 18:07:00,41.9,39.8,29.73,NNE,13,0.0,0.0,92,0.00,,---,0.60,40.00,VWS V14.01,2013-04-12 22:07:00,
2013-04-12 18:12:00,41.9,40.0,29.73,ENE,71,0.0,0.0,93,0.00,,---,0.60,44.00,VWS V14.01,2013-04-12 22:12:00,
2013-04-12 18:17:00,41.9,40.0,29.73,NNE,29,0.0,0.0,93,0.00,,---,0.60,42.00,VWS V14.01,2013-04-12 22:17:00,
2013-04-12 18:22:00,41.9,40.0,29.72,ENE,57,0.0,0.0,93,0.00,,---,0.60,39.00,VWS V14.01,2013-04-12 22:22:00,
2013-04-12 18:27:00,41.9,40.0,29.73,East,88,0.0,0.0,93,0.00,,---,0.60,23.00,VWS V14.01,2013-04-12 22:27:00,
2013-04-12 18:32:00,42.0,40.1,29.72,NE,46,0.0,0.0,93,0.00,,---,0.60,25.00,VWS V14.01,2013-04-12 22:32:00,
2013-04-12 18:37:00,42.1,40.2,29.72,NNE,20,0.0,0.0,93,0.00,,---,0.60,21.00,VWS V14.01,2013-04-12 22:37:00,
2013-04-12 18:42:00,41.9,40.0,29.72,SE,133,0.0,0.0,93,0.00,,---,0.60,12.00,VWS V14.01,2013-04-12 22:42:00,
2013-04-12 18:47:00,41.9,40.0,29.72,North,355,0.0,0.0,93,0.00,,---,0.60,12.00,VWS V14.01,2013-04-12 22:47:00,
2013-04-12 18:52:00,42.0,40.1,29.72,ENE,61,0.0,0.0,93,0.00,,---,0.60,9.00,VWS V14.01,2013-04-12 22:52:00,
2013-04-12 18:57:00,42.1,40.2,29.72,East,85,0.0,0.0,93,0.00,,---,0.60,11.00,VWS V14.01,2013-04-12 22:57:00,
2013-04-12 19:02:00,42.2,40.3,29.72,North,5,0.0,0.0,93,0.00,,---,0.60,5.00,VWS V14.01,2013-04-12 23:02:00,
2013-04-12 19:07:00,42.2,40.3,29.72,NNE,17,0.0,0.0,93,0.00,,---,0.60,0.00,VWS V14.01,2013-04-12 23:07:00,
2013-04-12 19:12:00,42.2,40.3,29.72,ENE,63,0.0,0.0,93,0.00,,---,0.60,0.00,VWS V14.01,2013-04-12 23:12:00,
2013-04-12 19:17:00,42.3,40.4,29.72,NE,36,0.0,0.0,93,0.00,,---,0.60,0.00,VWS V14.01,2013-04-12 23:17:00,
2013-04-12 19:22:00,42.3,40.4,29.71,NNE,18,0.0,0.0,93,0.00,,---,0.60,0.00,VWS V14.01,2013-04-12 23:22:00,
2013-04-12 19:27:00,42.3,40.4,29.71,NE,37,0.0,0.0,93,0.00,,---,0.60,0.00,VWS V14.01,2013-04-12 23:27:00,
2013-04-12 19:32:00,42.3,40.4,29.71,ENE,68,0.0,0.0,93,0.00,,---,0.60,0.00,VWS V14.01,2013-04-12 23:32:00,
2013-04-12 19:37:00,42.3,40.4,29.71,NNE,22,0.0,0.0,93,0.00,,---,0.60,0.00,VWS V14.01,2013-04-12 23:37:00,
2013-04-12 19:42:00,42.5,40.6,29.71,NE,43,0.0,0.0,93,0.00,,---,0.60,0.00,VWS V14.01,2013-04-12 23:42:00,
2013-04-12 19:47:00,42.4,40.5,29.71,ENE,77,0.0,0.0,93,0.00,,---,0.60,0.00,VWS V14.01,2013-04-12 23:47:00,
2013-04-12 19:52:00,42.3,40.4,29.71,NE,43,0.0,0.0,93,0.00,,---,0.60,0.00,VWS V14.01,2013-04-12 23:52:00,
2013-04-12 19:57:00,42.4,40.5,29.71,ENE,62,0.0,0.0,93,0.00,,---,0.60,0.00,VWS V14.01,2013-04-12 23:57:00,
2013-04-12 20:02:00,42.5,40.6,29.71,NNE,24,0.0,0.0,93,0.00,,---,0.60,0.00,VWS V14.01,2013-04-13 00:02:00,
2013-04-12 20:07:00,42.4,40.5,29.71,NE,55,0.0,0.0,93,0.00,,---,0.60,0.00,VWS V14.01,2013-04-13 00:07:00,
2013-04-12 20:12:00,42.4,40.5,29.71,NE,43,0.0,0.0,93,0.00,,---,0.60,0.00,VWS V14.01,2013-04-13 00:12:00,
2013-04-12 20:17:00,42.5,40.6,29.71,ENE,61,0.0,0.0,93,0.00,,---,0.60,0.00,VWS V14.01,2013-04-13 00:17:00,
2013-04-12 20:22:00,42.5,40.6,29.71,NE,42,0.0,0.0,93,0.00,,---,0.60,0.00,VWS V14.01,2013-04-13 00:22:00,
2013-04-12 20:27:00,42.5,40.6,29.71,North,9,0.0,0.0,93,0.00,,---,0.60,0.00,VWS V14.01,2013-04-13 00:27:00,
2013-04-12 20:32:00,42.5,40.6,29.72,NNE,22,0.0,0.0,93,0.00,,---,0.60,0.00,VWS V14.01,2013-04-13 00:32:00,
2013-04-12 20:37:00,42.6,40.7,29.72,North,360,0.0,0.0,93,0.00,,---,0.60,0.00,VWS V14.01,2013-04-13 00:37:00,
2013-04-12 20:42:00,42.6,40.7,29.72,NNE,24,0.0,0.0,93,0.00,,---,0.60,0.00,VWS V14.01,2013-04-13 00:42:00,
2013-04-12 20:47:00,42.5,40.6,29.71,NNE,29,0.0,0.0,93,0.00,,---,0.60,0.00,VWS V14.01,2013-04-13 00:47:00,
2013-04-12 20:52:00,42.5,40.6,29.72,North,350,0.0,0.0,93,0.00,,---,0.60,0.00,VWS V14.01,2013-04-13 00:52:00,
2013-04-12 20:57:00,42.5,40.6,29.73,NNE,12,0.0,0.0,93,0.00,,---,0.60,0.00,VWS V14.01,2013-04-13 00:57:00,
2013-04-12 21:02:00,42.6,40.7,29.73,NNE,23,0.0,0.0,93,0.00,,---,0.60,0.00,VWS V14.01,2013-04-13 01:02:00,
2013-04-12 21:07:00,42.7,40.8,29.73,NNE,20,0.0,0.0,93,0.00,,---,0.60,0.00,VWS V14.01,2013-04-13 01:07:00,
2013-04-12 21:12:00,42.8,40.6,29.72,NNE,28,0.0,0.0,92,0.00,,---,0.60,0.00,VWS V14.01,2013-04-13 01:12:00,
2013-04-12 21:17:00,42.8,40.6,29.72,NE,35,0.0,0.0,92,0.00,,---,0.60,0.00,VWS V14.01,2013-04-13 01:17:00,
2013-04-12 21:22:00,42.9,41.0,29.72,NE,53,0.0,0.0,93,0.00,,---,0.60,0.00,VWS V14.01,2013-04-13 01:22:00,
2013-04-12 21:27:00,42.8,40.6,29.72,NNE,30,0.0,0.0,92,0.00,,---,0.60,0.00,VWS V14.01,2013-04-13 01:27:00,
2013-04-12 21:33:00,42.8,40.9,29.73,ENE,61,0.0,0.0,93,0.00,,---,0.60,0.00,VWS V14.01,2013-04-13 01:33:00,
2013-04-12 21:37:00,42.8,40.9,29.72,NE,40,0.0,0.0,93,0.00,,---,0.60,0.00,VWS V14.01,2013-04-13 01:37:00,
2013-04-12 21:42:00,42.9,41.0,29.73,NNE,16,0.0,0.0,93,0.00,,---,0.60,0.00,VWS V14.01,2013-04-13 01:42:00,
2013-04-12 21:47:00,42.9,41.0,29.73,NNE,32,0.0,0.0,93,0.00,,---,0.60,0.00,VWS V14.01,2013-04-13 01:47:00,
2013-04-12 21:52:00,42.8,40.9,29.73,NNE,30,0.0,0.0,93,0.00,,---,0.60,0.00,VWS V14.01,2013-04-13 01:52:00,
2013-04-12 21:57:00,43.0,41.1,29.74,NNW,329,0.0,0.0,93,0.00,,---,0.60,0.00,VWS V14.01,2013-04-13 01:57:00,
2013-04-12 22:03:00,43.0,41.1,29.74,NNE,19,0.0,0.0,93,0.00,,---,0.60,0.00,VWS V14.01,2013-04-13 02:03:00,
2013-04-12 22:08:00,43.0,41.1,29.74,NE,38,0.0,0.0,93,0.00,,---,0.60,0.00,VWS V14.01,2013-04-13 02:08:00,
2013-04-12 22:13:00,43.0,41.1,29.74,NE,40,0.0,0.0,93,0.00,,---,0.60,0.00,VWS V14.01,2013-04-13 02:13:00,
2013-04-12 22:18:00,43.0,41.1,29.73,North,9,0.0,0.0,93,0.00,,---,0.60,0.00,VWS V14.01,2013-04-13 02:18:00,
2013-04-12 22:23:00,43.0,40.8,29.73,NE,53,0.0,0.0,92,0.00,,---,0.60,0.00,VWS V14.01,2013-04-13 02:23:00,
2013-04-12 22:28:00,42.9,40.7,29.74,NNE,20,0.0,0.0,92,0.00,,---,0.60,0.00,VWS V14.01,2013-04-13 02:28:00,
2013-04-12 22:33:00,42.9,40.7,29.74,North,11,0.0,0.0,92,0.00,,---,0.60,0.00,VWS V14.01,2013-04-13 02:33:00,
2013-04-12 22:38:00,42.9,40.7,29.74,NNE,32,0.0,0.0,92,0.00,,---,0.60,0.00,VWS V14.01,2013-04-13 02:38:00,
2013-04-12 22:43:00,42.7,40.5,29.74,North,5,0.0,0.0,92,0.00,,---,0.60,0.00,VWS V14.01,2013-04-13 02:43:00,
2013-04-12 22:48:00,42.6,40.4,29.74,NE,34,0.0,0.0,92,0.00,,---,0.60,0.00,VWS V14.01,2013-04-13 02:48:00,
2013-04-12 22:53:00,42.4,40.2,29.73,NE,46,0.0,0.0,92,0.00,,---,0.60,0.00,VWS V14.01,2013-04-13 02:53:00,
2013-04-12 22:58:00,42.3,40.2,29.73,ENE,63,0.0,0.0,92,0.00,,---,0.60,0.00,VWS V14.01,2013-04-13 02:58:00,
2013-04-12 23:03:00,42.2,40.3,29.73,NE,46,0.0,0.0,93,0.00,,---,0.60,0.00,VWS V14.01,2013-04-13 03:03:00,
2013-04-12 23:08:00,42.3,40.4,29.74,North,5,0.0,0.0,93,0.00,,---,0.60,0.00,VWS V14.01,2013-04-13 03:08:00,
2013-04-12 23:13:00,42.5,40.6,29.74,North,9,0.0,0.0,93,0.00,,---,0.60,0.00,VWS V14.01,2013-04-13 03:13:00,
2013-04-12 23:18:00,42.5,40.3,29.74,NE,36,0.0,0.0,92,0.00,,---,0.60,0.00,VWS V14.01,2013-04-13 03:18:00,
2013-04-12 23:23:00,42.5,40.3,29.74,NE,45,0.0,0.0,92,0.01,,---,0.61,0.00,VWS V14.01,2013-04-13 03:23:00,
2013-04-12 23:28:00,42.5,40.6,29.74,North,350,0.0,0.0,93,0.01,,---,0.61,0.00,VWS V14.01,2013-04-13 03:28:00,
2013-04-12 23:33:00,42.8,40.9,29.75,NE,35,0.0,0.0,93,0.02,,---,0.62,0.00,VWS V14.01,2013-04-13 03:33:00,
2013-04-12 23:38:00,42.7,40.5,29.74,NE,40,0.0,0.0,92,0.02,,---,0.62,0.00,VWS V14.01,2013-04-13 03:38:00,
2013-04-12 23:43:00,42.7,40.5,29.75,NNE,26,0.0,0.0,92,0.02,,---,0.62,0.00,VWS V14.01,2013-04-13 03:43:00,
2013-04-12 23:48:00,42.7,40.5,29.75,North,355,0.0,0.0,92,0.03,,---,0.63,0.00,VWS V14.01,2013-04-13 03:48:00,
2013-04-12 23:53:00,42.7,40.5,29.75,NNE,22,0.0,0.0,92,0.03,,---,0.63,0.00,VWS V14.01,2013-04-13 03:53:00,
2013-04-12 23:58:00,42.8,40.6,29.75,NE,34,0.0,0.0,92,0.03,,---,0.63,0.00,VWS V14.01,2013-04-13 03:58:00,